Regional Weather Roundup
Issued by NWS Newport/Morehead, NC

Current Version | Previous Version | Graphics & Text | Print | Product List | Glossary Off
Versions: 1 2 3 4 5 6 7 8 9 10 11 12 13 14 15 16 17 18 19 20 21 22 23 24 25 26 27 28 29 30 31 32 33 34 35 36 37 38 39 40 41 42 43 44 45 46 47 48 49 50

000
ASUS42 KMHX 040624
RWRMHX
WEATHER ROUNDUP FOR EASTERN NORTH CAROLINA
NATIONAL WEATHER SERVICE NEWPORT/MOREHEAD CITY NC
100 AM EST WED MAR 04 2015

NOTE: "FAIR" INDICATES FEW OR NO CLOUDS BELOW 12,000 FEET
WITH NO SIGNIFICANT WEATHER AND/OR OBSTRUCTIONS TO VISIBILITY

NCZ015>017-031-032-045>047-102-103-040700-
NORTH COAST

CITY           SKY/WX    TMP DP  RH WIND       PRES   REMARKS
EDENTON        FOG       43  42  98 SW5       30.05F VSB 1/4
ELIZABETH CITY FOG       46  45  93 SW10      30.03F VSB 3/4
KITTY HAWK     CLOUDY    57  57 100 SW8       30.03F FOG
MANTEO         FOG       54  54 100 SW14      30.05F VSB 3/4

$$

NCZ045>047-081-094-103-104-040700-
CENTRAL COAST

CITY           SKY/WX    TMP DP  RH WIND       PRES   REMARKS
FRISCO         FOG       55  55 100 SW10      30.08S VSB 1/2
SWANQUARTER      N/A     52 N/A N/A SW8G14    30.03S

$$

NCZ095-097-098-100-101-040700-
SOUTHERN COAST

CITY           SKY/WX    TMP DP  RH WIND       PRES   REMARKS
BEAUFORT       FOG       56  56 100 W8        30.09F VSB 1
CEDAR ISLAND     N/A     63 N/A N/A S10G22    30.12S
JACKSONVILLE   FOG       48  47  96 CALM      30.10F VSB 1/8
PINEY ISLAND     N/A    N/A N/A N/A MISG      30.08F
WILMINGTON     FOG       46  45  96 CALM      30.11F VSB 1/4


$$

NCZ011>013-027>030-043-044-078>080-089-090>093-098-040700-
COASTAL PLAIN

CITY           SKY/WX    TMP DP  RH WIND       PRES   REMARKS
AHOSKIE        DRZL/FOG  38  37  99 CALM      30.05F VSB 1
CLINTON        FOG       40  40 100 W5        30.11R VSB 1/2
ELIZABETHTOWN  FOG       42  42 100 CALM      30.10F VSB 1/4
GOLDSBORO      CLOUDY    40  40 100 W6        30.07F FOG
GREENVILLE     CLOUDY    41  41 100 W3        30.09F FOG
HAVELOCK       CLOUDY    61  60  97 SW7       30.10F
KENANSVILLE    FOG       41  41 100 CALM      30.09F VSB 1/2
KINSTON        FOG       43  43 100 SW3       30.08F VSB 1/2
NEW BERN       FOG       54  53  97 SW9       30.09F VSB 3/4
RICHLANDS      CLOUDY    45  43  93 S6        30.10F VSB 1/4
ROCKY MOUNT    CLOUDY    40  39  97 SW7       30.07F FOG
WASHINGTON     CLOUDY    44  44  99 SW5       30.07F FOG
WHITEVILLE     FOG       43  42  97 CALM      30.11F VSB 1/2

$$

AMZ130-135-150-152-154-156-158-170-250-252-270-ANZ085-086-088-633-658-670-040700-
MARINE OBSERVATIONS

STATION/POSITION TIME  TEMP    WIND        PRES    WAVE   SWELL
                       AIR SEA DIR/SP/G            HT/PER HT/PER
                 (UTC) (F)     (DEG/KT/KT) (MB)    (FT/S) (FT/S)
CHESAPEAKE LIGHT 0600   44     220/ 24/ 25 1015.6
64 E VA BEACH    0550   58 57  210/ 27/ 31 1015.4    6/ 6   2/13
DUCK             0600   56 35  210/ 14/ 19 1016.1
2 E DUCK         0511      35                N/A     3/ 4
10 NE DUCK       0522      37                N/A     3/ 5
OREGON INLET     0600   50 42  210/ 15/ 17 1017.7
HATTERAS CG      0600   54 43  230/  7/ 12 1018.9
CAPE LOOKOUT     0600   58     200/ 11/ 14 1019.0
BEAUFORT LAB     0600   55 44  240/  5/  8 1018.1
27 SE WRIGHTSVLE NOT AVBL
5 SE WRIGHTSVLE  NOT AVBL
225 S CAPE HAT   0550   69 72  190/ 17/ 21 1023.8    6/ 9   3/ 9
41 SE CHARLESTON 0550   69 68  190/  8/ 12 1019.6    4/ 9   5/ 9

$$


USA.gov is the U.S. government's official web portal to all federal, state and local government web resources and services.